Regional Weather Roundup
Issued by NWS Mobile, AL

Home | Current Version | Previous Version | Text Only | Print | Product List | Glossary On
Versions: 1 2 3 4 5 6 7 8 9 10 11 12 13 14 15 16 17 18 19 20 21 22 23 24 25 26 27 28 29 30 31 32 33 34 35 36 37 38 39 40 41 42 43 44 45 46 47 48 49 50
000
ASUS44 KMOB 222110
RWRMOB
REGIONAL WEATHER ROUNDUP
NATIONAL WEATHER SERVICE MOBILE AL
400 PM CDT TUE JUL 22 2014

NOTE: "FAIR" INDICATES FEW OR NO CLOUDS BELOW 12,000 FEET WITH NO
      SIGNIFICANT WEATHER AND/OR OBSTRUCTIONS TO VISIBILITY.

  * THESE STATIONS ARE PART OF THE UNIVERSITY OF SOUTH ALABAMA
    MESONET AND ARE NOT UNDER NWS OR FAA QUALITY CONTROL.

ALZ061>064-222200-
COASTAL ALABAMA

CITY           SKY/WX    TMP DP  RH WIND       PRES   REMARKS
MOBILE REG APT PTSUNNY   81  74  79 VRB3      30.02F
BROOKLEY FIELD MOSUNNY   86  76  71 SE5       30.02F HX  96
USA CAMPUS*      N/A     81  73  78 CALM      30.00F
DOG RIVER*       N/A     86  72  62 CALM      30.01F


CITY           SKY/WX    TMP DP  RH WIND       PRES   REMARKS
MOUNT VERNON*    N/A     81  73  78 SW2       30.01F
SARALAND*      NOT AVBL
BAY MINETTE*   NOT AVBL
LOXLEY*          N/A     84  72  65 SE7       30.01F
ROBERTSDALE*     N/A     81  72  74 E7        30.01F
FAIRHOPE*        N/A     82  73  74 S5        30.00F
ELBERTA*         N/A     84  72  65 NE3       30.01F
FOLEY*         NOT AVBL
GRAND BAY*       N/A     81  73  78 NW6       30.00F
DAUPHIN ISLND* NOT AVBL
BON SCOUR NWR* NOT AVBL
GULF SHORES    MOSUNNY   84  73  68 S7        30.01F

$$

ALZ051>060-222200-
INTERIOR SOUTHWEST AND SOUTH CENTRAL ALABAMA

CITY           SKY/WX    TMP DP  RH WIND       PRES   REMARKS
GREENVILLE     CLOUDY    84  73  69 S3        30.03F THUNDER
EVERGREEN      CLOUDY    84  73  69 S7        30.03F
CASTLEBERRY*   NOT AVBL
ATMORE*          N/A     73  72  94 CALM      30.04F
DIXIE*         NOT AVBL
ANDALUSIA/OPP  PTSUNNY   87  73  62 VRB5      30.03F
ANDALUSIA*     NOT AVBL
FLORALA APT    PTSUNNY   83  73  72 S5        30.04F
FLORALA*         N/A     82  72  69 E6        30.00F

$$

FLZ001>006-222200-
WESTERN FLORIDA PANHANDLE

CITY           SKY/WX    TMP DP  RH WIND       PRES   REMARKS
PENSACOLA      MOSUNNY   84  73  69 SE10      30.02F
NAS PENSACOLA  PTSUNNY   85  74  69 S10       30.01F
MILTON         PTSUNNY   79  68  69 SE5       30.02F
WHTNG S FIELD  PTSUNNY   80  68  66 E3        30.02F


CITY           SKY/WX    TMP DP  RH WIND       PRES   REMARKS
WALNUT HILL*   NOT AVBL
JAY*           NOT AVBL
DUKE FIELD     PTSUNNY   83  76  79 NE3       30.02F
CRESTVIEW      PTSUNNY   82  74  76 E5        30.03F
VALPARAISO     PTSUNNY   85  74  70 SW7       30.01F
DESTIN         MOSUNNY   86  75  69 VRB7      30.02F HX  95

$$

MSZ076-079-222200-
INTERIOR SOUTHEAST MISSISSIPPI

CITY           SKY/WX    TMP DP  RH WIND       PRES   REMARKS
LEAKESVILLE*   NOT AVBL
AGRICOLA*      NOT AVBL

$$

MARINE OBSERVATIONS

STATION/POSITION TIME  TEMP    WIND        PRES    WAVE
                       AIR SEA DIR/SP/G            HT/PER
                 (UTC) (F)     (DEG/KT/KT) (MB)    (FT/S)
PASCAGOULA       2100   86     320/  5/  8 1015.9F
PETIT BOIS ISLND 2100   85     200/  6/  7 1016.5R
KATRINA CUT      2000   83     200/  9     1016.9F
CEDAR POINT      2000   82     200/ 10     1016.6R
E DAUPHIN ISLAND 2000   84     190/  7/  9 1016.3F
MIDDLE BAY LIGHT 2000   83     180/  9     1015.6F
USCG MOBILE BAY  2100   83 83  160/  2/  4 1015.2F
STATE DOCKS      2100   83 84              1016.0F
MEAHER PARK      2000   83     270/  4     1015.9S
12 S ORANGE BCH  2100   83 84  200/  6/  8 1016.4F   1/ 4
PENSACOLA BAY    2100   86 85  170/  6/  8 1017.1R
64 S DAUPHIN ISL 2005   82 86  190/ 10/ 12 1016.3
67 S FORT MORGAN 1900   80                 1016.9F

$$

SELECTED LOCATIONS ACROSS THE REGION

CITY           SKY/WX    TMP DP  RH WIND       PRES   REMARKS
NEW ORLEANS    PTSUNNY   88  72  58 SE5       29.99F
GULFPORT       MOSUNNY   88  72  58 S7        29.99S
PASCAGOULA AP  PTSUNNY   81  73  76 N7        30.01F
PASCAGOULA*      N/A     86  72  62 S6        29.99F
HATTIESBURG    TSTM      79  72  79 E10G21    30.04R
LAUREL         CLOUDY    75  72  88 NW7       30.04S
MERIDIAN       CLOUDY    84  73  69 N9        30.02F
JACKSON        CLOUDY    87  73  62 CALM      30.02F
MONTGOMERY     PTSUNNY   87  70  56 E7        30.03F
TROY           PTSUNNY   87  69  54 E7        30.04F
KINSTON*       NOT AVBL
GENEVA*          N/A     82  72  69 W5        30.04F
ASHFORD*       NOT AVBL
DOTHAN         MOSUNNY   86  69  56 CALM      30.06F
PANAMA CITY    PTSUNNY   86  74  67 S7        30.02F

$$




USA.gov is the U.S. government's official web portal to all federal, state and local government web resources and services.